Regional Weather Roundup
Issued by NWS

Home | Current Version | Previous Version | Text Only | Print | Product List | Glossary Off
Versions: 1 2 3 4 5 6 7 8 9 10 11 12 13 14 15 16 17 18 19 20 21 22 23 24 25 26 27 28 29 30 31 32 33 34 35 36 37 38 39 40 41 42 43 44 45 46 47 48 49 50

000
ASUS43 KLMK 251510
RWRKY
KENTUCKY REGIONAL WEATHER ROUNDUP
NATIONAL WEATHER SERVICE LOUISVILLE KY
1000 AM EST THU DEC 25 2014

NOTE "FAIR" INDICATES FEW OR NO CLOUDS BELOW 12,000 FEET
WITH NO SIGNIFICANT WEATHER AND/OR OBSTRUCTIONS TO VISIBILITY.

KYZ001>023-026-027-061>063-070>075-251600-
WESTERN AND SOUTH CENTRAL KENTUCKY

CITY           SKY/WX    TMP DP  RH WIND       PRES   REMARKS
PADUCAH        SUNNY     41  32  70 SW12      30.13R
HENDERSON      MOSUNNY   41  32  70 SW9       30.12R
OWENSBORO      CLOUDY    41  35  79 SW10      30.14R
HOPKINSVILLE   CLOUDY    41  34  76 SW9       30.17R
BOWLING GREEN  CLOUDY    41  34  76 SW9       30.17R
GLASGOW        CLOUDY    40  35  81 SW7       30.17R WCI  35
$$

KYZ024-025-028>034-038-045-046-053-251600-
NORTH CENTRAL KENTUCKY

CITY           SKY/WX    TMP DP  RH WIND       PRES   REMARKS
LOUISVILLE/SDF CLOUDY    40  33  76 SW9       30.13R WCI  34
LOUISVILLE/LOU LGT RAIN  39  33  79 W9G17     30.13R WCI  33
FORT KNOX      CLOUDY    39  33  78 SW10      30.12R WCI  32
$$

KYZ035>037-039>044-047>052-055>060-089>105-251600-
NORTHEAST KENTUCKY

CITY           SKY/WX    TMP DP  RH WIND       PRES   REMARKS
LEXINGTON      CLOUDY    38  32  79 SW8       30.13R WCI  32
COVINGTON      DRIZZLE   36  31  82 SW6       30.08R WCI  31
FRANKFORT      CLOUDY    37  32  82 W7        30.12R WCI  32
$$

KYZ054-064>069-076>088-106>120-251600-
SOUTHEAST KENTUCKY

CITY           SKY/WX    TMP DP  RH WIND       PRES   REMARKS
JACKSON        CLOUDY    38  34  85 VRB3      30.12R
LONDON         CLOUDY    40  31  70 W9        30.16R WCI  34
SOMERSET       CLOUDY    37  32  81 SW7       30.18R WCI  32
MIDDLESBORO    CLOUDY    40  33  74 CALM      30.17R
MONTICELLO     CLOUDY    40  36  86 SW7       30.19R
$$



USA.gov is the U.S. government's official web portal to all federal, state and local government web resources and services.